| time (UTC) | temp C | wind direction | speed KPH | gust KPH | rain 1hr cm | rain 24hr cm | rain mn cm | humidity % | barometer mb |
| 20260902225318 | 30 | 49 | 14.5 | 25.7 | 0.00 | 0.05 | 0.05 | 68 | 1011.0 |
| 20260902224824 | 30 | 53 | 11.3 | 22.5 | 0.00 | 0.05 | 0.05 | 68 | 1010.9 |
| 20260902224329 | 30 | 80 | 9.7 | 22.5 | 0.00 | 0.05 | 0.05 | 68 | 1010.7 |
| 20260902223834 | 30 | 84 | 14.5 | 22.5 | 0.00 | 0.05 | 0.05 | 68 | 1010.6 |
| 20260902223318 | 30 | 83 | 11.3 | 22.5 | 0.00 | 0.05 | 0.05 | 67 | 1010.6 |
| 20260902222823 | 30 | 64 | 9.7 | 20.9 | 0.00 | 0.05 | 0.05 | 67 | 1010.6 |
| 20260902222355 | 30 | 69 | 14.5 | 20.9 | 0.00 | 0.05 | 0.05 | 67 | 1010.5 |
| 20260902221843 | 30 | 108 | 11.3 | 20.9 | 0.00 | 0.05 | 0.05 | 67 | 1010.4 |
| 20260902221327 | 30 | 88 | 14.5 | 20.9 | 0.00 | 0.05 | 0.05 | 67 | 1010.5 |
| 20260902220839 | 30 | 65 | 11.3 | 16.1 | 0.00 | 0.05 | 0.05 | 66 | 1010.4 |
| 20260902220320 | 31 | 54 | 8.0 | 20.9 | 0.00 | 0.05 | 0.05 | 66 | 1010.4 |
| 20260902215834 | 31 | 68 | 12.9 | 20.9 | 0.00 | 0.05 | 0.05 | 66 | 1010.4 |
| 20260902215338 | 31 | 98 | 9.7 | 24.1 | 0.00 | 0.05 | 0.05 | 66 | 1010.4 |
| 20260902214826 | 31 | 40 | 12.9 | 24.1 | 0.00 | 0.05 | 0.05 | 65 | 1010.5 |
| 20260902214346 | 31 | 100 | 6.4 | 24.1 | 0.03 | 0.05 | 0.05 | 65 | 1010.5 |
| 20260902213835 | 31 | 71 | 6.4 | 14.5 | 0.05 | 0.05 | 0.05 | 65 | 1010.5 |
| 20260902213321 | 31 | 114 | 3.2 | 11.3 | 0.05 | 0.05 | 0.05 | 64 | 1010.4 |
| 20260902212826 | 30 | 98 | 6.4 | 12.9 | 0.05 | 0.05 | 0.05 | 64 | 1010.5 |
| 20260902212333 | 30 | 95 | 8.0 | 12.9 | 0.05 | 0.05 | 0.05 | 63 | 1010.6 |
| 20260902211845 | 30 | 89 | 8.0 | 12.9 | 0.05 | 0.05 | 0.05 | 62 | 1010.6 |
| 20260902211351 | 30 | 86 | 8.0 | 11.3 | 0.05 | 0.05 | 0.05 | 62 | 1010.6 |
| 20260902210818 | 31 | 65 | 4.8 | 8.0 | 0.05 | 0.05 | 0.05 | 62 | 1010.7 |
| 20260902210347 | 31 | 65 | 3.2 | 6.4 | 0.05 | 0.05 | 0.05 | 61 | 1010.8 |
| 20260902205855 | 31 | 51 | 3.2 | 4.8 | 0.05 | 0.05 | 0.05 | 61 | 1010.7 |
| 20260902205318 | 31 | 31 | 1.6 | 25.7 | 0.05 | 0.05 | 0.05 | 61 | 1010.9 |
| 20260902204826 | 32 | 315 | 3.2 | 25.7 | 0.05 | 0.05 | 0.05 | 61 | 1011.0 |
| 20260902204331 | 32 | 327 | 8.0 | 16.1 | 0.03 | 0.03 | 0.03 | 62 | 1011.2 |
| 20260902203818 | 32 | 64 | 3.2 | 14.5 | 0.00 | 0.00 | 0.00 | 62 | 1010.9 |
| 20260902203329 | 33 | 55 | 6.4 | 14.5 | 0.00 | 0.00 | 0.00 | 62 | 1010.9 |
| 20260902202834 | 33 | 55 | 8.0 | 14.5 | 0.00 | 0.00 | 0.00 | 62 | 1010.9 |
| 20260902202340 | 33 | 59 | 9.7 | 14.5 | 0.00 | 0.00 | 0.00 | 62 | 1010.9 |
| 20260902201823 | 33 | 79 | 8.0 | 12.9 | 0.00 | 0.00 | 0.00 | 63 | 1010.9 |
| 20260902201335 | 34 | 50 | 8.0 | 11.3 | 0.00 | 0.00 | 0.00 | 64 | 1011.0 |
| 20260902200844 | 34 | 315 | 4.8 | 12.9 | 0.00 | 0.00 | 0.00 | 64 | 1011.0 |
| 20260902200328 | 34 | 283 | 6.4 | 24.1 | 0.00 | 0.00 | 0.00 | 65 | 1011.1 |
| 20260902195836 | 34 | 264 | 8.0 | 24.1 | 0.00 | 0.00 | 0.00 | 65 | 1011.2 |
| 20260902195321 | 34 | 269 | 9.7 | 22.5 | 0.00 | 0.00 | 0.00 | 65 | 1011.3 |
| 20260902194827 | 34 | 263 | 11.3 | 22.5 | 0.00 | 0.00 | 0.00 | 66 | 1011.4 |
| 20260902194331 | 34 | 251 | 8.0 | 20.9 | 0.00 | 0.00 | 0.00 | 67 | 1011.4 |
| 20260902193834 | 34 | 286 | 9.7 | 20.9 | 0.00 | 0.00 | 0.00 | 67 | 1011.5 |
| 20260902193318 | 33 | 259 | 8.0 | 17.7 | 0.00 | 0.00 | 0.00 | 68 | 1011.6 |
| 20260902192826 | 33 | 236 | 4.8 | 17.7 | 0.00 | 0.00 | 0.00 | 68 | 1011.7 |
| 20260902192326 | 33 | 238 | 9.7 | 16.1 | 0.00 | 0.00 | 0.00 | 68 | 1011.9 |
| 20260902191833 | 33 | 306 | 6.4 | 25.7 | 0.00 | 0.00 | 0.00 | 68 | 1011.9 |
| 20260902191340 | 33 | 238 | 14.5 | 25.7 | 0.00 | 0.00 | 0.00 | 68 | 1012.0 |
| 20260902190826 | 33 | 266 | 8.0 | 24.1 | 0.00 | 0.00 | 0.00 | 69 | 1012.1 |
| 20260902190329 | 33 | 269 | 12.9 | 20.9 | 0.00 | 0.00 | 0.00 | 69 | 1012.2 |
| 20260902185837 | 33 | 249 | 12.9 | 24.1 | 0.00 | 0.00 | 0.00 | 70 | 1012.2 |
| 20260902185322 | 33 | 247 | 14.5 | 24.1 | 0.00 | 0.00 | 0.00 | 70 | 1012.2 |
| 20260902184824 | 33 | 254 | 12.9 | 22.5 | 0.00 | 0.00 | 0.00 | 71 | 1012.3 |
| 20260902184355 | 33 | 260 | 11.3 | 22.5 | 0.00 | 0.00 | 0.00 | 71 | 1012.3 |
| 20260902183842 | 33 | 273 | 9.7 | 24.1 | 0.00 | 0.00 | 0.00 | 71 | 1012.4 |
| 20260902183328 | 33 | 258 | 17.7 | 25.7 | 0.00 | 0.00 | 0.00 | 72 | 1012.5 |
| 20260902182836 | 33 | 280 | 14.5 | 25.7 | 0.00 | 0.00 | 0.00 | 72 | 1012.6 |
| 20260902182320 | 33 | 290 | 9.7 | 24.1 | 0.00 | 0.00 | 0.00 | 72 | 1012.7 |
| 20260902181828 | 33 | 286 | 12.9 | 29.0 | 0.00 | 0.00 | 0.00 | 73 | 1012.8 |
| 20260902181401 | 33 | 275 | 16.1 | 29.0 | 0.00 | 0.00 | 0.00 | 74 | 1012.8 |
| 20260902180846 | 33 | 285 | 11.3 | 37.0 | 0.00 | 0.00 | 0.00 | 74 | 1013.0 |
| 20260902180331 | 33 | 249 | 19.3 | 37.0 | 0.00 | 0.00 | 0.00 | 75 | 1013.0 |
| 20260902175834 | 33 | 269 | 17.7 | 29.0 | 0.00 | 0.00 | 0.00 | 75 | 1013.2 |
| 20260902175337 | 32 | 271 | 14.5 | 24.1 | 0.00 | 0.00 | 0.00 | 75 | 1013.3 |
| 20260902174824 | 33 | 263 | 16.1 | 32.2 | 0.00 | 0.00 | 0.00 | 76 | 1013.4 |
| 20260902174326 | 33 | 265 | 17.7 | 32.2 | 0.00 | 0.00 | 0.00 | 76 | 1013.5 |
| 20260902173833 | 33 | 259 | 14.5 | 32.2 | 0.00 | 0.00 | 0.00 | 77 | 1013.5 |
| 20260902173320 | 32 | 258 | 14.5 | 32.2 | 0.00 | 0.00 | 0.00 | 78 | 1013.6 |
| 20260902172824 | 32 | 244 | 12.9 | 27.4 | 0.00 | 0.00 | 0.00 | 78 | 1013.7 |
| 20260902172325 | 32 | 227 | 12.9 | 27.4 | 0.00 | 0.00 | 0.00 | 78 | 1013.9 |
| 20260902171836 | 32 | 216 | 12.9 | 22.5 | 0.00 | 0.00 | 0.00 | 78 | 1013.9 |
| 20260902171345 | 32 | 225 | 11.3 | 24.1 | 0.00 | 0.00 | 0.00 | 78 | 1014.0 |
| 20260902170829 | 32 | 254 | 12.9 | 24.1 | 0.00 | 0.00 | 0.00 | 79 | 1014.2 |
| 20260902170331 | 32 | 270 | 9.7 | 20.9 | 0.00 | 0.00 | 0.00 | 80 | 1014.2 |
| 20260902165838 | 32 | 309 | 6.4 | 16.1 | 0.00 | 0.00 | 0.00 | 80 | 1014.2 |
| 20260902165321 | 31 | 266 | 8.0 | 17.7 | 0.00 | 0.00 | 0.00 | 80 | 1014.3 |
| 20260902164826 | 31 | 280 | 6.4 | 17.7 | 0.00 | 0.00 | 0.00 | 80 | 1014.4 |
| 20260902164327 | 31 | 271 | 8.0 | 17.7 | 0.00 | 0.00 | 0.00 | 81 | 1014.4 |
| 20260902163859 | 31 | 281 | 8.0 | 17.7 | 0.00 | 0.00 | 0.00 | 81 | 1014.5 |
| 20260902163343 | 31 | 275 | 8.0 | 17.7 | 0.00 | 0.00 | 0.00 | 80 | 1014.6 |
| 20260902162830 | 31 | 327 | 3.2 | 14.5 | 0.00 | 0.00 | 0.00 | 81 | 1014.7 |
| 20260902162354 | 31 | 23 | 4.8 | 14.5 | 0.00 | 0.00 | 0.00 | 82 | 1014.6 |
| 20260902161905 | 31 | 236 | 9.7 | 16.1 | 0.00 | 0.00 | 0.00 | 82 | 1014.7 |
| 20260902161327 | 30 | 286 | 3.2 | 16.1 | 0.00 | 0.00 | 0.00 | 82 | 1014.7 |
| 20260902160850 | 30 | 57 | 4.8 | 19.3 | 0.00 | 0.00 | 0.00 | 82 | 1014.7 |
| 20260902160340 | 30 | 336 | 6.4 | 19.3 | 0.00 | 0.00 | 0.00 | 82 | 1014.7 |
| 20260902155847 | 30 | 301 | 6.4 | 14.5 | 0.00 | 0.00 | 0.00 | 82 | 1014.7 |
| 20260902155329 | 30 | 284 | 4.8 | 14.5 | 0.00 | 0.00 | 0.00 | 82 | 1014.8 |
| 20260902154834 | 29 | 309 | 6.4 | 14.5 | 0.00 | 0.00 | 0.00 | 82 | 1014.9 |
| 20260902154320 | 29 | 275 | 4.8 | 14.5 | 0.00 | 0.00 | 0.00 | 82 | 1014.8 |
| 20260902153828 | 29 | 273 | 9.7 | 19.3 | 0.00 | 0.00 | 0.00 | 83 | 1014.9 |
| 20260902153331 | 29 | 283 | 6.4 | 19.3 | 0.00 | 0.00 | 0.00 | 83 | 1014.8 |
| 20260902152819 | 29 | 241 | 8.0 | 17.7 | 0.00 | 0.00 | 0.00 | 83 | 1014.6 |
| 20260902152318 | 28 | 265 | 12.9 | 25.7 | 0.00 | 0.00 | 0.00 | 83 | 1014.7 |
| 20260902151824 | 28 | 263 | 11.3 | 25.7 | 0.00 | 0.00 | 0.00 | 83 | 1014.7 |
| 20260902151330 | 28 | 320 | 4.8 | 17.7 | 0.00 | 0.00 | 0.00 | 83 | 1014.6 |
| 20260902150836 | 28 | 236 | 9.7 | 16.1 | 0.00 | 0.00 | 0.00 | 83 | 1014.7 |
| 20260902150342 | 28 | 244 | 4.8 | 14.5 | 0.00 | 0.00 | 0.00 | 83 | 1014.8 |
| 20260902145834 | 27 | 265 | 8.0 | 14.5 | 0.00 | 0.00 | 0.00 | 83 | 1014.7 |
| 20260902145337 | 27 | 270 | 4.8 | 14.5 | 0.00 | 0.00 | 0.00 | 83 | 1014.7 |
| 20260902144842 | 27 | 250 | 8.0 | 14.5 | 0.00 | 0.00 | 0.00 | 83 | 1014.7 |
| 20260902144328 | 27 | 302 | 3.2 | 9.7 | 0.00 | 0.00 | 0.00 | 83 | 1014.8 |
| 20260902143830 | 26 | 304 | 3.2 | 14.5 | 0.00 | 0.00 | 0.00 | 83 | 1014.8 |
| 20260902143401 | 26 | 331 | 6.4 | 14.5 | 0.00 | 0.00 | 0.00 | 83 | 1014.9 |
| 20260902142844 | 26 | 302 | 1.6 | 8.0 | 0.00 | 0.00 | 0.00 | 83 | 1014.9 |
| 20260902142327 | 26 | 304 | 3.2 | 6.4 | 0.00 | 0.00 | 0.00 | 82 | 1014.8 |
| 20260902141829 | 25 | 317 | 4.8 | 6.4 | 0.00 | 0.00 | 0.00 | 82 | 1014.8 |
| 20260902141334 | 25 | 325 | 1.6 | 6.4 | 0.00 | 0.00 | 0.00 | 82 | 1014.8 |
| 20260902140819 | 25 | 323 | 4.8 | 6.4 | 0.00 | 0.00 | 0.00 | 82 | 1014.8 |
| 20260902140323 | 25 | 323 | 1.6 | 6.4 | 0.00 | 0.00 | 0.00 | 82 | 1014.8 |
| 20260902135829 | 25 | 324 | 3.2 | 6.4 | 0.00 | 0.00 | 0.00 | 82 | 1014.8 |
| 20260902135402 | 25 | 324 | 3.2 | 6.4 | 0.00 | 0.00 | 0.00 | 82 | 1014.9 |
| 20260902134825 | 25 | 323 | 1.6 | 6.4 | 0.00 | 0.00 | 0.00 | 81 | 1014.9 |
| 20260902134330 | 25 | 325 | 3.2 | 6.4 | 0.00 | 0.00 | 0.00 | 81 | 1014.8 |
| 20260902133324 | 25 | 326 | 3.2 | 4.8 | 0.00 | 0.00 | 0.00 | 81 | 1014.9 |
| 20260902132829 | 25 | 326 | 0.0 | 6.4 | 0.00 | 0.00 | 0.00 | 81 | 1014.8 |
| 20260902132335 | 25 | 292 | 3.2 | 6.4 | 0.00 | 0.00 | 0.00 | 81 | 1014.8 |
| 20260902131842 | 25 | 292 | 3.2 | 6.4 | 0.00 | 0.00 | 0.00 | 81 | 1014.7 |
| 20260902131333 | 25 | 303 | 3.2 | 6.4 | 0.00 | 0.00 | 0.00 | 81 | 1014.7 |
| 20260902130839 | 24 | 301 | 4.8 | 6.4 | 0.00 | 0.00 | 0.00 | 81 | 1014.6 |
| 20260902130326 | 24 | 312 | 4.8 | 6.4 | 0.00 | 0.00 | 0.00 | 81 | 1014.6 |
| 20260902125826 | 24 | 300 | 4.8 | 6.4 | 0.00 | 0.00 | 0.00 | 81 | 1014.4 |
| 20260902125327 | 24 | 305 | 3.2 | 6.4 | 0.00 | 0.00 | 0.00 | 80 | 1014.2 |
| 20260902124833 | 24 | 269 | 4.8 | 9.7 | 0.00 | 0.00 | 0.00 | 80 | 1014.2 |
| 20260902124318 | 24 | 282 | 4.8 | 6.4 | 0.00 | 0.00 | 0.00 | 80 | 1014.2 |
| 20260902123822 | 24 | 281 | 3.2 | 6.4 | 0.00 | 0.00 | 0.00 | 80 | 1014.2 |
| 20260902123336 | 24 | 276 | 3.2 | 6.4 | 0.00 | 0.00 | 0.00 | 80 | 1014.0 |
| 20260902122847 | 24 | 277 | 3.2 | 6.4 | 0.00 | 0.00 | 0.00 | 80 | 1014.0 |
| 20260902122350 | 24 | 263 | 4.8 | 6.4 | 0.00 | 0.00 | 0.00 | 80 | 1013.9 |
| 20260902121833 | 24 | 257 | 3.2 | 6.4 | 0.00 | 0.00 | 0.00 | 80 | 1013.9 |
| 20260902121317 | 24 | 255 | 3.2 | 6.4 | 0.00 | 0.00 | 0.00 | 80 | 1013.9 |
| 20260902120822 | 24 | 254 | 3.2 | 6.4 | 0.00 | 0.00 | 0.00 | 80 | 1013.9 |
| 20260902120357 | 24 | 254 | 3.2 | 9.7 | 0.00 | 0.00 | 0.00 | 79 | 1013.9 |
| 20260902115822 | 24 | 257 | 4.8 | 9.7 | 0.00 | 0.00 | 0.00 | 79 | 1013.9 |
| 20260902115327 | 24 | 258 | 3.2 | 6.4 | 0.00 | 0.00 | 0.00 | 79 | 1013.8 |
| 20260902114834 | 24 | 258 | 3.2 | 6.4 | 0.00 | 0.00 | 0.00 | 79 | 1013.8 |
| 20260902114322 | 24 | 258 | 4.8 | 6.4 | 0.00 | 0.00 | 0.00 | 79 | 1013.8 |
| 20260902113823 | 24 | 258 | 4.8 | 6.4 | 0.00 | 0.00 | 0.00 | 79 | 1013.9 |
| 20260902113330 | 24 | 325 | 4.8 | 6.4 | 0.00 | 0.00 | 0.00 | 79 | 1013.8 |
| 20260902112840 | 24 | 325 | 3.2 | 6.4 | 0.00 | 0.00 | 0.00 | 79 | 1013.8 |
| 20260902112332 | 23 | 325 | 4.8 | 6.4 | 0.00 | 0.00 | 0.00 | 79 | 1013.8 |
| 20260902031828 | 27 | 90 | 0.0 | 0.0 | 0.00 | 0.00 | 0.00 | 63 | 1014.0 |
| 20260902031331 | 27 | 90 | 0.0 | 0.0 | 0.00 | 0.00 | 0.00 | 62 | 1013.9 |
| 20260902030818 | 27 | 90 | 0.0 | 0.0 | 0.00 | 0.00 | 0.00 | 62 | 1013.9 |
| 20260902030319 | 27 | 90 | 0.0 | 0.0 | 0.00 | 0.00 | 0.00 | 62 | 1013.9 |
| 20260902025851 | 28 | 90 | 0.0 | 3.2 | 0.00 | 0.00 | 0.00 | 62 | 1013.8 |
| 20260902025333 | 28 | 90 | 1.6 | 4.8 | 0.00 | 0.00 | 0.00 | 61 | 1013.8 |
| 20260902024820 | 28 | 90 | 1.6 | 4.8 | 0.00 | 0.00 | 0.00 | 61 | 1013.8 |
| 20260902024323 | 28 | 90 | 3.2 | 4.8 | 0.00 | 0.00 | 0.00 | 61 | 1013.7 |
| 20260902023824 | 28 | 90 | 1.6 | 4.8 | 0.00 | 0.00 | 0.00 | 61 | 1013.6 |
| 20260902023339 | 28 | 90 | 3.2 | 4.8 | 0.00 | 0.00 | 0.00 | 60 | 1013.6 |
| 20260902022845 | 28 | 90 | 3.2 | 3.2 | 0.00 | 0.00 | 0.00 | 60 | 1013.5 |
| 20260902022325 | 28 | 90 | 0.0 | 0.0 | 0.00 | 0.00 | 0.00 | 60 | 1013.4 |
| 20260902021829 | 28 | 90 | 0.0 | 0.0 | 0.00 | 0.00 | 0.00 | 60 | 1013.4 |
| 20260902021333 | 28 | 90 | 0.0 | 3.2 | 0.00 | 0.00 | 0.00 | 59 | 1013.4 |
| 20260902020818 | 28 | 90 | 0.0 | 4.8 | 0.00 | 0.00 | 0.00 | 59 | 1013.2 |
| 20260902020323 | 28 | 90 | 1.6 | 4.8 | 0.00 | 0.00 | 0.00 | 59 | 1013.1 |
| 20260902015826 | 29 | 90 | 1.6 | 6.4 | 0.00 | 0.00 | 0.00 | 59 | 1013.0 |
| 20260902015330 | 29 | 89 | 3.2 | 6.4 | 0.00 | 0.00 | 0.00 | 58 | 1013.0 |
| 20260902014817 | 29 | 96 | 3.2 | 9.7 | 0.00 | 0.00 | 0.00 | 58 | 1013.0 |
| 20260902014350 | 29 | 100 | 4.8 | 11.3 | 0.00 | 0.00 | 0.00 | 58 | 1013.0 |
| 20260902013836 | 29 | 105 | 3.2 | 11.3 | 0.00 | 0.00 | 0.00 | 57 | 1013.0 |
| 20260902013322 | 29 | 105 | 4.8 | 11.3 | 0.00 | 0.00 | 0.00 | 57 | 1013.0 |
| 20260902012829 | 30 | 94 | 4.8 | 12.9 | 0.00 | 0.00 | 0.00 | 57 | 1013.0 |
| 20260902012336 | 30 | 111 | 8.0 | 12.9 | 0.00 | 0.00 | 0.00 | 57 | 1013.0 |
| 20260902011839 | 30 | 121 | 4.8 | 14.5 | 0.00 | 0.00 | 0.00 | 56 | 1012.9 |
| 20260902011323 | 30 | 118 | 8.0 | 14.5 | 0.00 | 0.00 | 0.00 | 56 | 1013.0 |
| 20260902010829 | 30 | 105 | 6.4 | 14.5 | 0.00 | 0.00 | 0.00 | 56 | 1013.0 |
| 20260902010334 | 30 | 72 | 9.7 | 19.3 | 0.00 | 0.00 | 0.00 | 55 | 1013.1 |
| 20260902005846 | 30 | 102 | 8.0 | 19.3 | 0.00 | 0.00 | 0.00 | 55 | 1013.0 |
| 20260902005326 | 30 | 86 | 11.3 | 19.3 | 0.00 | 0.00 | 0.00 | 55 | 1013.0 |
| 20260902004833 | 30 | 89 | 12.9 | 19.3 | 0.00 | 0.00 | 0.00 | 54 | 1012.9 |
| 20260902004338 | 31 | 115 | 9.7 | 25.7 | 0.00 | 0.00 | 0.00 | 54 | 1012.8 |
| 20260902003823 | 31 | 115 | 12.9 | 25.7 | 0.00 | 0.00 | 0.00 | 53 | 1012.7 |
| 20260902003327 | 31 | 120 | 9.7 | 20.9 | 0.00 | 0.00 | 0.00 | 53 | 1012.6 |
| 20260902002835 | 31 | 98 | 12.9 | 20.9 | 0.00 | 0.00 | 0.00 | 53 | 1012.6 |
| 20260902002321 | 31 | 92 | 8.0 | 29.0 | 0.00 | 0.00 | 0.00 | 53 | 1012.6 |
| 20260902001828 | 31 | 136 | 9.7 | 29.0 | 0.00 | 0.00 | 0.00 | 52 | 1012.6 |
| 20260902001329 | 32 | 111 | 11.3 | 24.1 | 0.00 | 0.00 | 0.00 | 52 | 1012.5 |
| 20260902000902 | 32 | 109 | 12.9 | 24.1 | 0.00 | 0.00 | 0.00 | 52 | 1012.5 |
| 20260902000344 | 32 | 86 | 11.3 | 27.4 | 0.00 | 0.00 | 0.00 | 51 | 1012.3 |
| 20260901235824 | 32 | 138 | 14.5 | 25.7 | 0.00 | 0.00 | 0.00 | 51 | 1012.3 |
| 20260901235325 | 33 | 108 | 12.9 | 33.8 | 0.00 | 0.00 | 0.00 | 51 | 1012.3 |
| 20260901234850 | 33 | 135 | 14.5 | 33.8 | 0.00 | 0.00 | 0.00 | 51 | 1012.2 |
| 20260901234334 | 33 | 140 | 17.7 | 33.8 | 0.00 | 0.00 | 0.00 | 51 | 1012.2 |
| 20260901233845 | 34 | 132 | 17.7 | 32.2 | 0.00 | 0.00 | 0.00 | 51 | 1012.2 |
| 20260901233329 | 35 | 117 | 14.5 | 32.2 | 0.00 | 0.00 | 0.00 | 51 | 1012.1 |
| 20260901232836 | 35 | 101 | 12.9 | 20.9 | 0.00 | 0.00 | 0.00 | 51 | 1012.1 |
| 20260901232320 | 35 | 96 | 9.7 | 17.7 | 0.00 | 0.00 | 0.00 | 51 | 1012.0 |
| 20260901231826 | 35 | 118 | 9.7 | 14.5 | 0.00 | 0.00 | 0.00 | 52 | 1012.1 |
| 20260901231333 | 35 | 84 | 8.0 | 17.7 | 0.00 | 0.00 | 0.00 | 52 | 1012.1 |
| 20260901230822 | 35 | 126 | 11.3 | 17.7 | 0.00 | 0.00 | 0.00 | 52 | 1012.1 |
| 20260901230327 | 35 | 80 | 6.4 | 17.7 | 0.00 | 0.00 | 0.00 | 52 | 1012.1 |
| 20260901225836 | 35 | 90 | 8.0 | 19.3 | 0.00 | 0.00 | 0.00 | 52 | 1012.1 |